NOAA NWS Hourly Roundups by Site

Regional Weather Roundup for Seattle, WA

To Select Another Site Choose from List

Select Site:  

000
ASUS46 KSEW 262010
RWRWA

WASHINGTON REGIONAL WEATHER ROUNDUP
NATIONAL WEATHER SERVICE SEATTLE WA
100 PM PDT SUN MAY 26 2019

NOTE:"FAIR" INDICATES FEW OR NO CLOUDS BELOW 12,000 FEET WITH NO
SIGNIFICANT WEATHER AND/OR OBSTRUCTIONS TO VISIBILITY.

WAZ507-509-555>559-262100-
SEATTLE, TACOMA, EVERETT, AND VICINITY

CITY           SKY/WX    TMP DP  RH WIND       PRES   REMARKS
EVERETT        FAIR      59  51  75 N7        29.89F
BOEING FIELD   FAIR      64  51  62 VRB6      29.88S
RENTON         FAIR      63  53  70 N8        29.87F
SEATAC AIRPORT PTSUNNY   63  51  65 N9        29.88S
JBLM-MCCHORD   FAIR      62  58  84 N10       29.88S
PUYALLUP       PTSUNNY   61  55  82 CALM      29.88S
BREMERTON      FAIR      62  53  72 NE7       29.88F
JBLM-FT LEWIS  MOSUNNY   62  58  85 NW8       29.87F
TACOMA NARROWS FAIR      60  50  69 VRB6      29.87F
$$

WAZ001-503-506-510-514-515-262100-
NORTH INTERIOR

CITY           SKY/WX    TMP DP  RH WIND       PRES   REMARKS
BELLINGHAM     FAIR      61  52  72 S8        29.87F
FRIDAY HARBOR  FAIR      63  53  70 SE5       29.89S
EASTSOUND      FAIR      61  52  72 CALM      29.87S
PORT ANGELES   FAIR      66  50  56 E5        29.88F
EDIZ HOOK      FAIR      56  51  84 CALM      29.88S
PORT TOWNSEND  PTSUNNY   64  50  59 CALM      29.87F
NAS WHIDBEY    PTSUNNY   62  50  64 W6        29.92S
ARLINGTON      PTSUNNY   59  52  77 VRB3      29.89S
BURLINGTON     MOSUNNY   66  57  72 CALM      29.88F
$$

WAZ020-022-039-040-504-511-512-262100-
SOUTHWEST INTERIOR

CITY           SKY/WX    TMP DP  RH WIND       PRES   REMARKS
SHELTON        PTSUNNY   61  50  67 CALM      29.86F
OLYMPIA        PTSUNNY   61  51  70 VRB5      29.88F
CHEHALIS       CLOUDY    61  54  77 CALM      29.87F
KELSO          CLOUDY    63  52  67 VRB6      29.85F
VANCOUVER      FAIR      65  50  58 NE12      29.83S
SCAPPOOSE, OR  FAIR      67  52  58 N15       29.82S
PORTLAND, OR   PTSUNNY   66  51  58 NW7       29.83S
$$

WAZ021-516-517-262100-
WASHINGTON COAST

CITY           SKY/WX    TMP DP  RH WIND       PRES   REMARKS
FORKS          FAIR      67  53  61 SW12      29.84S
HOQUIAM        FAIR      63  53  70 E7        29.87S
ASTORIA, OR    FAIR      65  53  65 NW8       29.84F
$$

WAZ019-023-024-040-567>569-262100-
CASCADE MOUNTAINS AND COLUMBIA GORGE

CITY           SKY/WX    TMP DP  RH WIND       PRES   REMARKS
STAMPEDE PASS  CLOUDY    55  46  71 VRB5      29.90S
TROUTDALE, OR  FAIR      64  51  62 CALM      29.83S
HOOD RIVER, OR CLOUDY    66  50  55 E3        29.81S
THE DALLES, OR CLOUDY    67  50  54 CALM      29.80F
$$

WAZ026-027-041>044-520-521-262100-
EAST SLOPES

CITY           SKY/WX    TMP DP  RH WIND       PRES   REMARKS
OMAK           CLOUDY    60  52  74 N13       29.93S
WENATCHEE      CLOUDY    56  50  80 W8        29.89R
ELLENSBURG     CLOUDY    58  51  78 SW5       29.86S
YAKIMA         CLOUDY    61  51  70 N12G18    29.85S
SUNNYSIDE ARPT CLOUDY    67  54  61 NW6       29.81S
YAKIMA TC      MOCLDY    60  51  72 NE16      29.83S
$$

WAZ028-034-035-262100-
COLUMBIA BASIN

CITY           SKY/WX    TMP DP  RH WIND       PRES   REMARKS
EPHRATA        CLOUDY    62  53  72 N16       29.84S
MOSES LAKE     LGT RAIN  69  50  50 E15       29.82S
PASCO          FAIR      76  53  44 NW14      29.77F
RICHLAND ARPT  MOCLDY    75  51  43 N9        29.78F
HERMISTON, OR  FAIR      72  51  47 CALM      29.77F
$$

WAZ036>038-262100-
NORTHEAST WASHINGTON

CITY           SKY/WX    TMP DP  RH WIND       PRES   REMARKS
SPOKANE GEIGER PTSUNNY   63  42  46 NE14      29.87S
SPOKANE FELTS  PTSUNNY   67  44  43 NE8       29.87S
FAIRCHILD AFB  CLOUDY    63  44  49 NE23G31   29.86F
COEURDALENE,ID PTSUNNY   62  43  49 NE17G25   29.89S
DEER PARK      PTSUNNY   64  41  42 NE17G33   29.90R
$$

WAZ029>033-262100-
SOUTHEAST WASHINGTON

CITY           SKY/WX    TMP DP  RH WIND       PRES   REMARKS
PULLMAN        PTSUNNY   67  51  56 VRB7      29.81F
LEWISTON, ID   FAIR      68  52  56 CALM      29.75F
WALLA WALLA    FAIR      68  50  52 S3        29.77F
PENDLETON, OR  FAIR      67  54  63 NW13      29.77F
$$



 

View Past Reports for Seattle, WA.

Products Courtesy of NOAA-NWS
NWS Information Parsing Script by Ken True at Saratoga Weather - Script by SE Lincoln Weather.